,,Stat6,,Stat2,,Stat8,,Stat9,,Stat10,,Wind1,,Wind1,
time,status,PA1M_AVG,status,PR1M_SUM,status,RH1M_AVG,status,SR1M_AVG,status,TA1M_AVG,status,W1dAve1m,status,W1sAve1m,
2009-06-05, 00:00:00,VALID,917.904,VALID,0,VALID,100,VALID,-0.0339617,VALID,20.2198,VALID,13,VALID,0,
2009-06-05, 00:01:00,VALID,917.886,VALID,0,VALID,100,VALID,-0.0339617,VALID,20.2103,VALID,1,VALID,0,
2009-06-05, 00:02:00,VALID,917.875,VALID,0,VALID,100,VALID,-0.0169808,VALID,20.2098,VALID,1,VALID,0,
2009-06-05, 00:03:00,VALID,917.859,VALID,0,VALID,100,VALID,0,VALID,20.2003,VALID,20,VALID,0,
2009-06-05, 00:04:00,VALID,917.85,VALID,0,VALID,100,VALID,-0.0339617,VALID,20.1843,VALID,22,VALID,0.12642,
2009-06-05, 00:05:00,VALID,917.854,VALID,0,VALID,100,VALID,-0.0849042,VALID,20.1908,VALID,12,VALID,0.0212573,
2009-06-05, 00:06:00,VALID,917.843,VALID,0,VALID,100,VALID,-0.0169808,VALID,20.1876,VALID,12,VALID,0.133575,
2009-06-05, 00:07:00,VALID,917.833,VALID,0,VALID,100,VALID,-0.0169808,VALID,20.1773,VALID,16,VALID,0.173209,
2009-06-05, 00:08:00,VALID,917.832,VALID,0,VALID,100,VALID,-0.0169808,VALID,20.1811,VALID,19,VALID,0.0573509,
2009-06-05, 00:09:00,VALID,917.823,VALID,0,VALID,100,VALID,-0.0169808,VALID,20.1676,VALID,10,VALID,0,
2009-06-05, 00:10:00,VALID,917.828,VALID,0,VALID,100,VALID,-0.0509425,VALID,20.1681,VALID,11,VALID,0.0879836,
2009-06-05, 00:11:00,VALID,917.824,VALID,0,VALID,100,VALID,-0.0169808,VALID,20.1476,VALID,8,VALID,0.568026,
2009-06-05, 00:12:00,VALID,917.825,VALID,0,VALID,100,VALID,0,VALID,20.1479,VALID,26,VALID,0.509146,
2009-06-05, 00:13:00,VALID,917.811,VALID,0,VALID,100,VALID,-0.0169808,VALID,20.1476,VALID,24,VALID,0.705171,
2009-06-05, 00:14:00,VALID,917.803,VALID,0,VALID,100,VALID,0,VALID,20.1503,VALID,10,VALID,0.103237,
2009-06-05, 00:15:00,VALID,917.792,VALID,0,VALID,100,VALID,0.0169808,VALID,20.1503,VALID,4,VALID,0.497142,
2009-06-05, 00:16:00,VALID,917.784,VALID,0,VALID,100,VALID,0.0509425,VALID,20.1601,VALID,15,VALID,0.13681,
2009-06-05, 00:17:00,VALID,917.77,VALID,0,VALID,100,VALID,0.0339617,VALID,20.1601,VALID,17,VALID,0.0506904,
2009-06-05, 00:18:00,VALID,917.754,VALID,0,VALID,100,VALID,0.0509425,VALID,20.1531,VALID,1,VALID,0,
2009-06-05, 00:19:00,VALID,917.734,VALID,0,VALID,100,VALID,0.0509425,VALID,20.1733,VALID,7,VALID,0.0397727,
2009-06-05, 00:20:00,VALID,917.74,VALID,0,VALID,100,VALID,0.0169808,VALID,20.1798,VALID,4,VALID,0,
2009-06-05, 00:21:00,VALID,917.716,VALID,0,VALID,100,VALID,-0.0169808,VALID,20.1768,VALID,8,VALID,0.156867,
2009-06-05, 00:22:00,VALID,917.706,VALID,0,VALID,100,VALID,0,VALID,20.1868,VALID,23,VALID,0.00111607,
2009-06-05, 00:23:00,VALID,917.701,VALID,0,VALID,100,VALID,0,VALID,20.173,VALID,24,VALID,0,
2009-06-05, 00:24:00,VALID,917.702,VALID,0,VALID,100,VALID,0.0169808,VALID,20.1771,VALID,10,VALID,0.00111607,
2009-06-05, 00:25:00,VALID,917.698,VALID,0,VALID,100,VALID,0,VALID,20.1773,VALID,2,VALID,0.314808,
2009-06-05, 00:26:00,VALID,917.693,VALID,0,VALID,100,VALID,0,VALID,20.1671,VALID,13,VALID,0.193229,
2009-06-05, 00:27:00,VALID,917.679,VALID,0,VALID,100,VALID,0,VALID,20.1606,VALID,2,VALID,0.0559896,
2009-06-05, 00:28:00,VALID,917.664,VALID,0,VALID,100,VALID,0.0169808,VALID,20.1568,VALID,355,VALID,0,
2009-06-05, 00:29:00,VALID,917.658,VALID,0,VALID,100,VALID,0,VALID,20.1668,VALID,2,VALID,0,
2009-06-05, 00:30:00,VALID,917.656,VALID,0,VALID,100,VALID,0,VALID,20.1795,VALID,21,VALID,0,
2009-06-05, 00:31:00,VALID,917.633,VALID,0,VALID,100,VALID,0,VALID,20.1833,VALID,9,VALID,0.222098,
2009-06-05, 00:32:00,VALID,917.639,VALID,0,VALID,100,VALID,0.0679233,VALID,20.1631,VALID,360,VALID,0.161272,
2009-06-05, 00:33:00,VALID,917.625,VALID,0,VALID,100,VALID,0.0339617,VALID,20.1633,VALID,337,VALID,0.00290698,
2009-06-05, 00:34:00,VALID,917.607,VALID,0,VALID,100,VALID,0.0339617,VALID,20.1666,VALID,12,VALID,0.0820313,
2009-06-05, 00:35:00,VALID,917.597,VALID,0,VALID,100,VALID,0,VALID,20.1636,VALID,16,VALID,0.0100694,
2009-06-05, 00:36:00,VALID,917.585,VALID,0,VALID,100,VALID,0.0169808,VALID,20.1598,VALID,352,VALID,0.0131579,
2009-06-05, 00:37:00,VALID,917.569,VALID,0,VALID,100,VALID,0.0509425,VALID,20.1536,VALID,12,VALID,0,
2009-06-05, 00:38:00,VALID,917.568,VALID,0,VALID,100,VALID,0.0509425,VALID,20.1636,VALID,8,VALID,0,
2009-06-05, 00:39:00,VALID,917.558,VALID,0,VALID,100,VALID,0.0169808,VALID,20.1725,VALID,6,VALID,0,
2009-06-05, 00:40:00,VALID,917.568,VALID,0,VALID,100,VALID,0,VALID,20.1898,VALID,337,VALID,0,
2009-06-05, 00:41:00,VALID,917.565,VALID,0,VALID,100,VALID,-0.0849042,VALID,20.1946,VALID,306,VALID,0,
2009-06-05, 00:42:00,VALID,917.549,VALID,0,VALID,100,VALID,-0.0849042,VALID,20.1681,VALID,318,VALID,0,
2009-06-05, 00:43:00,VALID,917.546,VALID,0,VALID,100,VALID,-0.118866,VALID,20.1716,VALID,2,VALID,0.00109012,
2009-06-05, 00:44:00,VALID,917.526,VALID,0,VALID,100,VALID,-0.0849042,VALID,20.1586,VALID,18,VALID,0.509266,
2009-06-05, 00:45:00,VALID,917.537,VALID,0,VALID,100,VALID,-0.0849042,VALID,20.1683,VALID,10,VALID,0.0607244,
2009-06-05, 00:46:00,VALID,917.554,VALID,0,VALID,100,VALID,-0.0679233,VALID,20.1716,VALID,9,VALID,0,
2009-06-05, 00:47:00,VALID,917.55,VALID,0,VALID,100,VALID,-0.0849042,VALID,20.1746,VALID,8,VALID,0,
2009-06-05, 00:48:00,VALID,917.554,VALID,0,VALID,100,VALID,-0.0849042,VALID,20.1681,VALID,359,VALID,0,
2009-06-05, 00:49:00,VALID,917.55,VALID,0,VALID,100,VALID,-0.0679233,VALID,20.1683,VALID,350,VALID,0,
2009-06-05, 00:50:00,VALID,917.534,VALID,0,VALID,100,VALID,-0.0509425,VALID,20.1813,VALID,23,VALID,0,
2009-06-05, 00:51:00,VALID,917.524,VALID,0,VALID,100,VALID,-0.101885,VALID,20.1683,VALID,2,VALID,0.0935764,
2009-06-05, 00:52:00,VALID,917.496,VALID,0,VALID,100,VALID,-0.118866,VALID,20.1589,VALID,357,VALID,0.00576637,
2009-06-05, 00:53:00,VALID,917.479,VALID,0,VALID,100,VALID,-0.101885,VALID,20.1583,VALID,22,VALID,0,
2009-06-05, 00:54:00,VALID,917.478,VALID,0,VALID,100,VALID,-0.0679233,VALID,20.1746,VALID,17,VALID,0,
2009-06-05, 00:55:00,VALID,917.478,VALID,0,VALID,100,VALID,-0.0849042,VALID,20.1846,VALID,349,VALID,0,
2009-06-05, 00:56:00,VALID,917.492,VALID,0,VALID,100,VALID,-0.0849042,VALID,20.1648,VALID,330,VALID,0.0851362,
2009-06-05, 00:57:00,VALID,917.498,VALID,0,VALID,100,VALID,-0.101885,VALID,20.1356,VALID,350,VALID,0,
2009-06-05, 00:58:00,VALID,917.488,VALID,0,VALID,100,VALID,-0.0849042,VALID,20.1556,VALID,345,VALID,0.035061,
2009-06-05, 00:59:00,VALID,917.483,VALID,0,VALID,100,VALID,-0.0679233,VALID,20.1262,VALID,3,VALID,0.113194,
2009-06-05, 01:00:00,VALID,917.479,VALID,0,VALID,100,VALID,-0.101885,VALID,20.1396,VALID,1,VALID,0,
2009-06-05, 01:01:00,VALID,917.471,VALID,0,VALID,100,VALID,-0.0679233,VALID,20.1491,VALID,357,VALID,0.00615027,
2009-06-05, 01:02:00,VALID,917.459,VALID,0,VALID,100,VALID,-0.0849042,VALID,20.1394,VALID,358,VALID,0.152158,
2009-06-05, 01:03:00,VALID,917.448,VALID,0,VALID,100,VALID,-0.101885,VALID,20.1456,VALID,18,VALID,0.00497159,
2009-06-05, 01:04:00,VALID,917.424,VALID,0,VALID,100,VALID,-0.0679233,VALID,20.1554,VALID,17,VALID,0,
2009-06-05, 01:05:00,VALID,917.402,VALID,0,VALID,100,VALID,-0.101885,VALID,20.1651,VALID,4,VALID,0,
2009-06-05, 01:06:00,VALID,917.359,VALID,0,VALID,100,VALID,-0.101885,VALID,20.1591,VALID,352,VALID,0.134943,
2009-06-05, 01:07:00,VALID,917.331,VALID,0,VALID,100,VALID,-0.101885,VALID,20.1494,VALID,357,VALID,0.108681,
2009-06-05, 01:08:00,VALID,917.337,VALID,0,VALID,100,VALID,-0.101885,VALID,20.1399,VALID,18,VALID,0.0690104,
2009-06-05, 01:09:00,VALID,917.314,VALID,0,VALID,100,VALID,-0.0509425,VALID,20.1164,VALID,14,VALID,0.31359,
2009-06-05, 01:10:00,VALID,917.3,VALID,0,VALID,100,VALID,-0.101885,VALID,20.1199,VALID,17,VALID,0.422637,
2009-06-05, 01:11:00,VALID,917.291,VALID,0,VALID,100,VALID,-0.101885,VALID,20.0907,VALID,16,VALID,0.675967,
2009-06-05, 01:12:00,VALID,917.283,VALID,0,VALID,100,VALID,-0.0849042,VALID,20.1034,VALID,1,VALID,0.00952744,
2009-06-05, 01:13:00,VALID,917.277,VALID,0,VALID,100,VALID,-0.0849042,VALID,20.1326,VALID,338,VALID,0,
2009-06-05, 01:14:00,VALID,917.28,VALID,0,VALID,100,VALID,-0.101885,VALID,20.1526,VALID,355,VALID,0,
2009-06-05, 01:15:00,VALID,917.275,VALID,0,VALID,100,VALID,-0.118866,VALID,20.1524,VALID,359,VALID,0,
2009-06-05, 01:16:00,VALID,917.265,VALID,0,VALID,100,VALID,-0.101885,VALID,20.1424,VALID,34,VALID,0.302401,
2009-06-05, 01:17:00,VALID,917.256,VALID,0,VALID,100,VALID,-0.135847,VALID,20.1459,VALID,334,VALID,0.00436047,
2009-06-05, 01:18:00,VALID,917.25,VALID,0,VALID,100,VALID,-0.0849042,VALID,20.1329,VALID,345,VALID,0.12872,
2009-06-05, 01:19:01,VALID,917.253,VALID,0,VALID,100,VALID,-0.0849042,VALID,20.1556,VALID,356,VALID,0.0102983,
2009-06-05, 01:20:00,VALID,917.241,VALID,0,VALID,100,VALID,-0.118866,VALID,20.1648,VALID,22,VALID,0,
2009-06-05, 01:21:00,VALID,917.215,VALID,0,VALID,100,VALID,-0.0849042,VALID,20.1648,VALID,20,VALID,0.077753,
2009-06-05, 01:22:01,VALID,917.21,VALID,0,VALID,100,VALID,-0.101885,VALID,20.1618,VALID,19,VALID,0,
2009-06-05, 01:23:00,VALID,917.196,VALID,0,VALID,100,VALID,-0.0849042,VALID,20.1781,VALID,27,VALID,0,
2009-06-05, 01:24:01,VALID,917.201,VALID,0,VALID,100,VALID,-0.101885,VALID,20.1721,VALID,19,VALID,0,
2009-06-05, 01:25:00,VALID,917.182,VALID,0,VALID,100,VALID,-0.101885,VALID,20.1524,VALID,13,VALID,0.00327035,
2009-06-05, 01:26:00,VALID,917.165,VALID,0,VALID,100,VALID,-0.0849042,VALID,20.1424,VALID,2,VALID,0,
2009-06-05, 01:27:00,VALID,917.162,VALID,0,VALID,100,VALID,-0.101885,VALID,20.1227,VALID,352,VALID,0,
2009-06-05, 01:28:01,VALID,917.137,VALID,0,VALID,100,VALID,-0.101885,VALID,20.1067,VALID,310,VALID,0,
2009-06-05, 01:29:00,VALID,917.119,VALID,0,VALID,100,VALID,-0.0849042,VALID,20.0905,VALID,306,VALID,0,
2009-06-05, 01:30:00,VALID,917.106,VALID,0,VALID,100,VALID,-0.0849042,VALID,20.087,VALID,1,VALID,0,
2009-06-05, 01:31:01,VALID,917.088,VALID,0,VALID,100,VALID,-0.0679233,VALID,20.0805,VALID,6,VALID,0,
2009-06-05, 01:32:01,VALID,917.081,VALID,0,VALID,100,VALID,-0.0679233,VALID,20.0707,VALID,6,VALID,0,
2009-06-05, 01:33:01,VALID,917.08,VALID,0,VALID,100,VALID,-0.0509425,VALID,20.061,VALID,6,VALID,0,
2009-06-05, 01:34:01,VALID,917.087,VALID,0,VALID,100,VALID,-0.0849042,VALID,20.045,VALID,6,VALID,0,
2009-06-05, 01:35:00,VALID,917.096,VALID,0,VALID,100,VALID,-0.101885,VALID,20.035,VALID,6,VALID,0,
2009-06-05, 01:36:00,VALID,917.097,VALID,0,VALID,100,VALID,-0.101885,VALID,20.0221,VALID,6,VALID,0,
2009-06-05, 01:37:00,VALID,917.097,VALID,0,VALID,100,VALID,-0.0679233,VALID,20.0126,VALID,6,VALID,0,
2009-06-05, 01:38:00,VALID,917.089,VALID,0,VALID,100,VALID,-0.101885,VALID,20.0023,VALID,353,VALID,0,
2009-06-05, 01:39:00,VALID,917.074,VALID,0,VALID,100,VALID,-0.0849042,VALID,20.0091,VALID,352,VALID,0,
2009-06-05, 01:40:01,VALID,917.049,VALID,0,VALID,100,VALID,-0.0509425,VALID,20.0058,VALID,352,VALID,0,
2009-06-05, 01:41:00,VALID,917.014,VALID,0,VALID,100,VALID,-0.0169808,VALID,20.0145,VALID,352,VALID,0,
2009-06-05, 01:42:00,VALID,916.997,VALID,0,VALID,100,VALID,0,VALID,20.0203,VALID,352,VALID,0,
2009-06-05, 01:43:00,VALID,916.961,VALID,0,VALID,100,VALID,0,VALID,20.0303,VALID,352,VALID,0,
2009-06-05, 01:44:00,VALID,916.926,VALID,0,VALID,100,VALID,0.0169808,VALID,20.0173,VALID,352,VALID,0,
2009-06-05, 01:45:00,VALID,916.904,VALID,0,VALID,100,VALID,0,VALID,20.0108,VALID,352,VALID,0,
2009-06-05, 01:46:01,VALID,916.895,VALID,0,VALID,100,VALID,0,VALID,19.9888,VALID,352,VALID,0,
2009-06-05, 01:47:00,VALID,916.892,VALID,0,VALID,100,VALID,0.0169808,VALID,19.9754,VALID,352,VALID,0,
2009-06-05, 01:48:01,VALID,916.92,VALID,0,VALID,100,VALID,0.0169808,VALID,19.9756,VALID,352,VALID,0,
2009-06-05, 01:49:00,VALID,916.936,VALID,0,VALID,100,VALID,0.0169808,VALID,19.9529,VALID,352,VALID,0,
2009-06-05, 01:50:00,VALID,916.949,VALID,0,VALID,100,VALID,0.0339617,VALID,19.9624,VALID,352,VALID,0,
2009-06-05, 01:51:00,VALID,916.953,VALID,0,VALID,100,VALID,0,VALID,19.9559,VALID,352,VALID,0,
2009-06-05, 01:52:01,VALID,916.936,VALID,0,VALID,100,VALID,0.0339617,VALID,19.9559,VALID,352,VALID,0,
2009-06-05, 01:53:00,VALID,916.922,VALID,0,VALID,100,VALID,0.0169808,VALID,19.9529,VALID,352,VALID,0,
2009-06-05, 01:54:00,VALID,916.909,VALID,0,VALID,100,VALID,0.0169808,VALID,19.9491,VALID,352,VALID,0,
2009-06-05, 01:55:00,VALID,916.88,VALID,0,VALID,100,VALID,0,VALID,19.9359,VALID,352,VALID,0,
2009-06-05, 01:56:01,VALID,916.866,VALID,0,VALID,100,VALID,0.0339617,VALID,19.9102,VALID,352,VALID,0,
2009-06-05, 01:57:00,VALID,916.842,VALID,0,VALID,100,VALID,0.0169808,VALID,19.8843,VALID,352,VALID,0,
2009-06-05, 01:58:01,VALID,916.833,VALID,0,VALID,100,VALID,0.0339617,VALID,19.8486,VALID,357,VALID,0,
2009-06-05, 01:59:01,VALID,916.797,VALID,0,VALID,100,VALID,0.0339617,VALID,19.8124,VALID,4,VALID,0,
2009-06-05, 02:00:01,VALID,916.795,VALID,0,VALID,100,VALID,0.0169808,VALID,19.8061,VALID,4,VALID,0,
2009-06-05, 02:01:00,VALID,916.813,VALID,0,VALID,100,VALID,0.0339617,VALID,19.7999,VALID,4,VALID,0,
2009-06-05, 02:02:00,VALID,916.825,VALID,0,VALID,100,VALID,0.0169808,VALID,19.7999,VALID,4,VALID,0,
2009-06-05, 02:03:00,VALID,916.818,VALID,0,VALID,100,VALID,0.0339617,VALID,19.7934,VALID,4,VALID,0,
2009-06-05, 02:04:01,VALID,916.825,VALID,0,VALID,100,VALID,0.0509425,VALID,19.7807,VALID,7,VALID,0,
2009-06-05, 02:05:00,VALID,916.822,VALID,0,VALID,100,VALID,0.0169808,VALID,19.7807,VALID,15,VALID,0,
2009-06-05, 02:06:00,VALID,916.821,VALID,0,VALID,100,VALID,0,VALID,19.7707,VALID,16,VALID,0,
2009-06-05, 02:07:01,VALID,916.789,VALID,0,VALID,100,VALID,0.0169808,VALID,19.7707,VALID,16,VALID,0,
2009-06-05, 02:08:01,VALID,916.785,VALID,0,VALID,100,VALID,0.0169808,VALID,19.7739,VALID,16,VALID,0,
2009-06-05, 02:09:01,VALID,916.795,VALID,0,VALID,100,VALID,0.0679233,VALID,19.7772,VALID,16,VALID,0,
2009-06-05, 02:10:01,VALID,916.798,VALID,0,VALID,100,VALID,0.0509425,VALID,19.7772,VALID,18,VALID,0,
2009-06-05, 02:11:01,VALID,916.822,VALID,0,VALID,100,VALID,-0.0509425,VALID,19.755,VALID,25,VALID,0,
2009-06-05, 02:12:01,VALID,916.837,VALID,0,VALID,100,VALID,-0.0849042,VALID,19.746,VALID,21,VALID,0,
2009-06-05, 02:13:01,VALID,916.852,VALID,0,VALID,100,VALID,-0.101885,VALID,19.7397,VALID,13,VALID,0,
2009-06-05, 02:14:01,VALID,916.854,VALID,0,VALID,100,VALID,-0.101885,VALID,19.7135,VALID,12,VALID,0,
2009-06-05, 02:15:01,VALID,916.836,VALID,0,VALID,100,VALID,-0.101885,VALID,19.7105,VALID,12,VALID,0,
2009-06-05, 02:16:01,VALID,916.816,VALID,0,VALID,100,VALID,-0.118866,VALID,19.7203,VALID,12,VALID,0,
2009-06-05, 02:17:01,VALID,916.793,VALID,0,VALID,100,VALID,-0.0849042,VALID,19.7205,VALID,12,VALID,0,
2009-06-05, 02:18:01,VALID,916.792,VALID,0,VALID,100,VALID,-0.101885,VALID,19.7073,VALID,13,VALID,0,
2009-06-05, 02:19:01,VALID,916.798,VALID,0,VALID,100,VALID,-0.118866,VALID,19.7043,VALID,356,VALID,0,
2009-06-05, 02:20:00,VALID,916.809,VALID,0,VALID,100,VALID,-0.101885,VALID,19.7013,VALID,346,VALID,0,
2009-06-05, 02:21:00,VALID,916.827,VALID,0,VALID,100,VALID,-0.101885,VALID,19.6913,VALID,346,VALID,0,
2009-06-05, 02:22:00,VALID,916.846,VALID,0,VALID,100,VALID,-0.135847,VALID,19.6883,VALID,320,VALID,0,
2009-06-05, 02:23:00,VALID,916.857,VALID,0,VALID,100,VALID,-0.101885,VALID,19.6881,VALID,290,VALID,0,
2009-06-05, 02:24:00,VALID,916.855,VALID,0,VALID,100,VALID,-0.118866,VALID,19.6881,VALID,290,VALID,0,
2009-06-05, 02:25:00,VALID,916.832,VALID,0,VALID,100,VALID,-0.118866,VALID,19.6976,VALID,290,VALID,0,
2009-06-05, 02:26:00,VALID,916.816,VALID,0,VALID,100,VALID,-0.118866,VALID,19.6878,VALID,18,VALID,0,
2009-06-05, 02:27:00,VALID,916.804,VALID,0,VALID,100,VALID,-0.101885,VALID,19.6783,VALID,21,VALID,0,
2009-06-05, 02:28:00,VALID,916.791,VALID,0,VALID,100,VALID,-0.135847,VALID,19.6491,VALID,21,VALID,0,
2009-06-05, 02:29:00,VALID,916.774,VALID,0,VALID,100,VALID,-0.101885,VALID,19.6424,VALID,21,VALID,0,
2009-06-05, 02:30:00,VALID,916.774,VALID,0,VALID,100,VALID,-0.118866,VALID,19.6688,VALID,21,VALID,0,
2009-06-05, 02:31:00,VALID,916.756,VALID,0,VALID,100,VALID,-0.0849042,VALID,19.6758,VALID,21,VALID,0,
2009-06-05, 02:32:00,VALID,916.764,VALID,0,VALID,100,VALID,-0.118866,VALID,19.6591,VALID,21,VALID,0,
2009-06-05, 02:33:00,VALID,916.784,VALID,0,VALID,100,VALID,-0.118866,VALID,19.6521,VALID,21,VALID,0,
2009-06-05, 02:34:00,VALID,916.763,VALID,0,VALID,100,VALID,-0.118866,VALID,19.6621,VALID,21,VALID,0,
2009-06-05, 02:35:00,VALID,916.767,VALID,0,VALID,100,VALID,-0.101885,VALID,19.6619,VALID,21,VALID,0,
2009-06-05, 02:36:00,VALID,916.746,VALID,0,VALID,100,VALID,-0.118866,VALID,19.6556,VALID,21,VALID,0,
2009-06-05, 02:37:00,VALID,916.755,VALID,0,VALID,100,VALID,-0.101885,VALID,19.6521,VALID,21,VALID,0,
2009-06-05, 02:38:00,VALID,916.751,VALID,0,VALID,100,VALID,-0.101885,VALID,19.6591,VALID,21,VALID,0,
2009-06-05, 02:39:00,VALID,916.744,VALID,0,VALID,100,VALID,-0.101885,VALID,19.6589,VALID,21,VALID,0,
2009-06-05, 02:40:00,VALID,916.719,VALID,0,VALID,100,VALID,-0.101885,VALID,19.6489,VALID,21,VALID,0,
2009-06-05, 02:41:00,VALID,916.712,VALID,0,VALID,100,VALID,-0.0679233,VALID,19.6352,VALID,21,VALID,0,
2009-06-05, 02:42:00,VALID,916.71,VALID,0,VALID,100,VALID,-0.0169808,VALID,19.6214,VALID,21,VALID,0,
2009-06-05, 02:43:00,VALID,916.692,VALID,0,VALID,100,VALID,-0.0339617,VALID,19.6187,VALID,17,VALID,0,
2009-06-05, 02:44:00,VALID,916.715,VALID,0,VALID,100,VALID,0,VALID,19.606,VALID,17,VALID,0,
2009-06-05, 02:45:00,VALID,916.704,VALID,0,VALID,100,VALID,0,VALID,19.599,VALID,17,VALID,0,
2009-06-05, 02:46:00,VALID,916.698,VALID,0,VALID,100,VALID,-0.0679233,VALID,19.6092,VALID,17,VALID,0,
2009-06-05, 02:47:00,VALID,916.692,VALID,0,VALID,100,VALID,-0.0679233,VALID,19.6192,VALID,17,VALID,0,
2009-06-05, 02:48:00,VALID,916.695,VALID,0,VALID,100,VALID,-0.0509425,VALID,19.6184,VALID,17,VALID,0,
2009-06-05, 02:49:00,VALID,916.674,VALID,0,VALID,100,VALID,-0.0509425,VALID,19.6284,VALID,22,VALID,0.112827,
2009-06-05, 02:50:00,VALID,916.664,VALID,0,VALID,100,VALID,-0.101885,VALID,19.6414,VALID,20,VALID,0.295945,
2009-06-05, 02:51:00,VALID,916.637,VALID,0,VALID,100,VALID,-0.0169808,VALID,19.6479,VALID,14,VALID,0.137153,
2009-06-05, 02:52:00,VALID,916.658,VALID,0,VALID,100,VALID,-0.0169808,VALID,19.6506,VALID,7,VALID,0.0794588,
2009-06-05, 02:53:00,VALID,916.667,VALID,0,VALID,100,VALID,-0.0339617,VALID,19.6669,VALID,11,VALID,0,
2009-06-05, 02:54:00,VALID,916.666,VALID,0,VALID,100,VALID,-0.0169808,VALID,19.6671,VALID,4,VALID,0.251635,
2009-06-05, 02:55:00,VALID,916.66,VALID,0,VALID,100,VALID,0,VALID,19.6831,VALID,22,VALID,0.0820313,
2009-06-05, 02:56:00,VALID,916.641,VALID,0,VALID,100,VALID,-0.0509425,VALID,19.6933,VALID,25,VALID,0.00230824,
2009-06-05, 02:57:00,VALID,916.613,VALID,0,VALID,100,VALID,-0.101885,VALID,19.7238,VALID,17,VALID,0,
2009-06-05, 02:58:00,VALID,916.594,VALID,0,VALID,100,VALID,-0.101885,VALID,19.7235,VALID,12,VALID,0,
2009-06-05, 02:59:00,VALID,916.58,VALID,0,VALID,100,VALID,-0.101885,VALID,19.733,VALID,7,VALID,0,
2009-06-05, 03:00:00,VALID,916.552,VALID,0,VALID,100,VALID,-0.135847,VALID,19.7332,VALID,359,VALID,0,
2009-06-05, 03:01:00,VALID,916.534,VALID,0,VALID,100,VALID,-0.118866,VALID,19.7397,VALID,356,VALID,0,
2009-06-05, 03:02:00,VALID,916.514,VALID,0,VALID,100,VALID,-0.118866,VALID,19.743,VALID,13,VALID,0.40952,
2009-06-05, 03:03:00,VALID,916.515,VALID,0,VALID,100,VALID,-0.101885,VALID,19.756,VALID,6,VALID,0.0511533,
2009-06-05, 03:04:00,VALID,916.516,VALID,0,VALID,100,VALID,-0.101885,VALID,19.7757,VALID,11,VALID,0.464286,
2009-06-05, 03:05:00,VALID,916.528,VALID,0,VALID,100,VALID,-0.152827,VALID,19.7917,VALID,16,VALID,0,
2009-06-05, 03:06:00,VALID,916.527,VALID,0,VALID,100,VALID,-0.0849042,VALID,19.8149,VALID,12,VALID,0.105903,
2009-06-05, 03:07:00,VALID,916.526,VALID,0,VALID,100,VALID,-0.101885,VALID,19.8244,VALID,331,VALID,0,
2009-06-05, 03:08:00,VALID,916.526,VALID,0,VALID,100,VALID,-0.118866,VALID,19.8311,VALID,354,VALID,0.0337358,
2009-06-05, 03:09:00,VALID,916.523,VALID,0,VALID,100,VALID,-0.118866,VALID,19.8306,VALID,16,VALID,0.130269,
2009-06-05, 03:10:00,VALID,916.538,VALID,0,VALID,100,VALID,-0.101885,VALID,19.8376,VALID,2,VALID,0,
2009-06-05, 03:11:00,VALID,916.534,VALID,0,VALID,100,VALID,-0.0679233,VALID,19.8401,VALID,318,VALID,0,
2009-06-05, 03:12:00,VALID,916.514,VALID,0,VALID,100,VALID,-0.0339617,VALID,19.8463,VALID,350,VALID,0,
2009-06-05, 03:13:00,VALID,916.506,VALID,0,VALID,100,VALID,0,VALID,19.8333,VALID,349,VALID,0,
2009-06-05, 03:14:00,VALID,916.492,VALID,0,VALID,100,VALID,0,VALID,19.8263,VALID,203,VALID,0,
2009-06-05, 03:15:00,VALID,916.473,VALID,0,VALID,100,VALID,0,VALID,19.8199,VALID,203,VALID,0,
2009-06-05, 03:16:00,VALID,916.46,VALID,0,VALID,100,VALID,-0.0169808,VALID,19.8231,VALID,203,VALID,0,
2009-06-05, 03:17:00,VALID,916.443,VALID,0,VALID,100,VALID,-0.0339617,VALID,19.8164,VALID,203,VALID,0,
2009-06-05, 03:18:00,VALID,916.434,VALID,0,VALID,100,VALID,-0.0169808,VALID,19.7939,VALID,203,VALID,0,
2009-06-05, 03:19:00,VALID,916.417,VALID,0,VALID,100,VALID,-0.0169808,VALID,19.7814,VALID,312,VALID,0,
2009-06-05, 03:20:00,VALID,916.425,VALID,0,VALID,100,VALID,-0.0169808,VALID,19.7487,VALID,5,VALID,0.0437863,
2009-06-05, 03:21:00,VALID,916.422,VALID,0,VALID,100,VALID,-0.0339617,VALID,19.7387,VALID,12,VALID,0,
2009-06-05, 03:22:00,VALID,916.414,VALID,0,VALID,100,VALID,0,VALID,19.726,VALID,12,VALID,0,
2009-06-05, 03:23:00,VALID,916.408,VALID,0,VALID,100,VALID,-0.0169808,VALID,19.7198,VALID,12,VALID,0,
2009-06-05, 03:24:00,VALID,916.404,VALID,0,VALID,100,VALID,0,VALID,19.7035,VALID,12,VALID,0,
2009-06-05, 03:25:00,VALID,916.392,VALID,0,VALID,100,VALID,-0.0509425,VALID,19.6866,VALID,10,VALID,0,
2009-06-05, 03:26:00,VALID,916.39,VALID,0,VALID,100,VALID,0,VALID,19.6838,VALID,251,VALID,0,
2009-06-05, 03:27:00,VALID,916.371,VALID,0,VALID,100,VALID,0.0339617,VALID,19.6704,VALID,251,VALID,0,
2009-06-05, 03:28:00,VALID,916.349,VALID,0,VALID,100,VALID,0.0169808,VALID,19.6412,VALID,251,VALID,0,
2009-06-05, 03:29:00,VALID,916.312,VALID,0,VALID,100,VALID,0,VALID,19.6317,VALID,292,VALID,0,
2009-06-05, 03:30:00,VALID,916.307,VALID,0,VALID,100,VALID,-0.0169808,VALID,19.5827,VALID,2,VALID,0,
2009-06-05, 03:31:00,VALID,916.303,VALID,0,VALID,100,VALID,-0.0169808,VALID,19.563,VALID,4,VALID,0,
2009-06-05, 03:32:00,VALID,916.306,VALID,0,VALID,100,VALID,0,VALID,19.5438,VALID,4,VALID,0,
2009-06-05, 03:33:00,VALID,916.305,VALID,0,VALID,100,VALID,0,VALID,19.5308,VALID,4,VALID,0,
2009-06-05, 03:34:00,VALID,916.293,VALID,0,VALID,100,VALID,-0.0169808,VALID,19.5241,VALID,4,VALID,0,
2009-06-05, 03:35:00,VALID,916.291,VALID,0,VALID,100,VALID,-0.0169808,VALID,19.5186,VALID,4,VALID,0,
2009-06-05, 03:36:00,VALID,916.274,VALID,0,VALID,100,VALID,-0.0169808,VALID,19.5051,VALID,4,VALID,0,
2009-06-05, 03:37:00,VALID,916.258,VALID,0,VALID,100,VALID,-0.0169808,VALID,19.4854,VALID,4,VALID,0,
2009-06-05, 03:38:00,VALID,916.254,VALID,0,VALID,100,VALID,0,VALID,19.4754,VALID,4,VALID,0,
2009-06-05, 03:39:00,VALID,916.259,VALID,0,VALID,100,VALID,0,VALID,19.4562,VALID,4,VALID,0,
2009-06-05, 03:40:00,VALID,916.244,VALID,0,VALID,100,VALID,0,VALID,19.4335,VALID,4,VALID,0,
2009-06-05, 03:41:00,VALID,916.245,VALID,0,VALID,100,VALID,0,VALID,19.4238,VALID,4,VALID,0,
2009-06-05, 03:42:00,VALID,916.235,VALID,0,VALID,100,VALID,0.0169808,VALID,19.3973,VALID,10,VALID,0,
2009-06-05, 03:43:00,VALID,916.201,VALID,0,VALID,100,VALID,-0.0339617,VALID,19.3684,VALID,12,VALID,0,
2009-06-05, 03:44:00,VALID,916.189,VALID,0,VALID,100,VALID,0,VALID,19.3624,VALID,13,VALID,0.0232599,
2009-06-05, 03:45:00,VALID,916.174,VALID,0,VALID,100,VALID,0,VALID,19.3454,VALID,15,VALID,0,
2009-06-05, 03:46:00,VALID,916.169,VALID,0,VALID,100,VALID,0,VALID,19.3394,VALID,15,VALID,0,
2009-06-05, 03:47:00,VALID,916.186,VALID,0,VALID,100,VALID,-0.0169808,VALID,19.3294,VALID,15,VALID,0,
2009-06-05, 03:48:00,VALID,916.203,VALID,0,VALID,100,VALID,0.0169808,VALID,19.3294,VALID,14,VALID,0,
2009-06-05, 03:49:00,VALID,916.214,VALID,0,VALID,100,VALID,0,VALID,19.323,VALID,4,VALID,0.0504261,
2009-06-05, 03:50:00,VALID,916.226,VALID,0,VALID,100,VALID,-0.0339617,VALID,19.3329,VALID,351,VALID,0.0387074,